Weather History for Kaneohe MCBH, HI

Change the Weather History Date:

Monday, December 17, 2012

  Actual Average Record
Temperature  
Mean Temperature 74 °F -  
Max Temperature 77 °F 76 °F 81 °F (2006)
Min Temperature 71 °F 67 °F 59 °F (1998)
Cooling Degree Days 9    
Growing Degree Days 24 (Base 50)    
Moisture  
Dew Point 69 °F    
Average Humidity 86    
Maximum Humidity 100    
Minimum Humidity 73    
Precipitation  
Precipitation 0.00 in - - ()
Sea Level Pressure  
Sea Level Pressure 30.12 in    
Wind  
Wind Speed 13 mph (ENE)    
Max Wind Speed 18 mph    
Max Gust Speed 32 mph    
Visibility 9 miles    
Events Rain    
Averages and records for this station are not official NWS values.
T = Trace of Precipitation, MM = Missing Value Source: NWS Daily Summary

Daily Weather History Graph

Daily Weather History Graph

Search for Another Location

Airport:

Trip Planner

Search our weather history database for the weather conditions in past years. The results will help you decide how hot, cold, wet, or windy it might be!

Date:

Astronomy

Dec. 17, 2012 Rise Set
Actual Time 7:02 AM HST 5:52 PM HST
Civil Twilight 6:38 AM HST 6:16 PM HST
Nautical Twilight 6:10 AM HST 6:44 PM HST
Astronomical Twilight 5:43 AM HST 7:11 PM HST
Moon 10:48 AM HST (12/17) 10:51 PM HST (12/17)
Length of Visible Light 11h 38m
Length of Day
10h 49m
Waxing Crescent, 26% of the Moon is Illuminated
Dec 17
Waxing Crescent
Dec 19
First Quarter
Dec 28
Full
Jan 4
Last Quarter
Jan 11
New

Hourly Weather History & Observations

Time (HST) Temp. Dew Point Humidity Pressure Visibility Wind Dir Wind Speed Gust Speed Precip Events Conditions
12:57 AM - - N/A% 30.12 in 10.0 mi ENE 11.5 mph 19.6 mph N/A   Mostly Cloudy
1:57 AM - - N/A% 30.11 in 10.0 mi ENE 12.7 mph 21.9 mph N/A   Overcast
2:57 AM - - N/A% 30.10 in 10.0 mi ENE 13.8 mph 21.9 mph N/A   Scattered Clouds
3:57 AM - - N/A% 30.10 in 10.0 mi ENE 12.7 mph 21.9 mph N/A   Clear
4:57 AM 73.4 °F 66.0 °F 78% 30.09 in 10.0 mi ENE 13.8 mph 25.3 mph N/A Rain Light Rain
5:57 AM 73.4 °F 69.1 °F 86% 30.10 in 10.0 mi ENE 13.8 mph 24.2 mph N/A   Mostly Cloudy
6:57 AM 73.4 °F 66.9 °F 80% 30.12 in 10.0 mi ENE 12.7 mph 20.7 mph N/A   Scattered Clouds
7:57 AM 73.4 °F 68.0 °F 83% 30.13 in 10.0 mi ENE 13.8 mph 29.9 mph N/A   Mostly Cloudy
8:57 AM 75.2 °F 66.0 °F 73% 30.14 in 10.0 mi ENE 13.8 mph 26.5 mph N/A   Mostly Cloudy
9:57 AM 75.2 °F 66.9 °F 75% 30.15 in 10.0 mi ENE 18.4 mph 27.6 mph N/A   Mostly Cloudy
10:57 AM 77.0 °F 69.1 °F 76% 30.14 in 10.0 mi ENE 13.8 mph 24.2 mph N/A   Overcast
11:57 AM 75.2 °F 66.9 °F 75% 30.12 in 10.0 mi ENE 16.1 mph 25.3 mph N/A   Overcast
2:57 PM 75.2 °F 69.1 °F 81% 30.07 in 10.0 mi East 17.3 mph 26.5 mph N/A Rain Light Rain
3:24 PM 75.2 °F 73.4 °F 94% 30.09 in 6.2 mi ENE 11.5 mph 25.3 mph N/A Rain Light Rain
3:57 PM 75.2 °F 73.0 °F 93% 30.08 in 10.0 mi ENE 13.8 mph 26.5 mph N/A   Mostly Cloudy
4:04 PM 75.2 °F 69.8 °F 83% 30.09 in 6.2 mi East 13.8 mph 25.3 mph N/A Rain Light Rain
4:46 PM 71.6 °F 69.8 °F 94% 30.10 in 6.2 mi East 11.5 mph 32.2 mph N/A Rain Light Rain
4:57 PM 71.6 °F 70.0 °F 95% 30.09 in 10.0 mi ENE 16.1 mph 24.2 mph N/A   Overcast
5:18 PM 75.2 °F 75.2 °F 100% 30.11 in 6.2 mi East 15.0 mph 26.5 mph N/A Rain Light Rain
5:43 PM 75.2 °F 75.2 °F 100% 30.11 in 6.2 mi ENE 10.4 mph 25.3 mph N/A   Overcast
5:57 PM 75.2 °F 75.0 °F 99% 30.10 in 10.0 mi East 15.0 mph 21.9 mph N/A   Overcast
6:17 PM 75.2 °F 75.2 °F 100% 30.11 in 6.2 mi East 15.0 mph 28.8 mph N/A   Mostly Cloudy
6:57 PM 71.6 °F 66.2 °F 83% 30.12 in 10.0 mi East 13.8 mph 23.0 mph N/A   Scattered Clouds
7:57 PM 71.6 °F 69.1 °F 92% 30.12 in 10.0 mi ENE 10.4 mph 18.4 mph N/A   Mostly Cloudy
8:30 PM 71.6 °F 69.8 °F 94% 30.14 in 6.2 mi East 11.5 mph 23.0 mph N/A   Mostly Cloudy
8:57 PM 71.6 °F 69.1 °F 92% 30.13 in 10.0 mi East 15.0 mph 24.2 mph N/A   Scattered Clouds
9:18 PM 71.6 °F 66.2 °F 83% 30.14 in 6.2 mi East 12.7 mph 25.3 mph N/A   Mostly Cloudy
9:57 PM 71.6 °F 66.9 °F 85% 30.13 in 10.0 mi ENE 15.0 mph 26.5 mph N/A   Mostly Cloudy
10:12 PM 71.6 °F 69.8 °F 94% 30.14 in 6.2 mi East 13.8 mph 27.6 mph N/A   Overcast
10:57 PM 73.4 °F 69.1 °F 86% 30.13 in 10.0 mi East 12.7 mph 21.9 mph N/A Rain Light Rain
11:26 PM 73.4 °F 66.2 °F 78% 30.14 in 6.2 mi East 10.4 mph 28.8 mph N/A   Mostly Cloudy
11:36 PM 73.4 °F 66.2 °F 78% 30.14 in 6.2 mi East 13.8 mph 25.3 mph N/A Rain Light Rain
11:57 PM 73.4 °F 66.0 °F 78% 30.12 in 10.0 mi ENE 13.8 mph 25.3 mph N/A   Mostly Cloudy